Year,Month,Day,Hour,Minute,Value (Times are PST for temperature in C)
2006,08,07,00,00,15.70
2006,08,07,00,01,15.70
2006,08,07,00,02,15.60
2006,08,07,00,03,15.60
2006,08,07,00,04,15.60
2006,08,07,00,05,15.60
2006,08,07,00,06,15.60
2006,08,07,00,07,15.50
2006,08,07,00,08,15.50
2006,08,07,00,09,15.50
2006,08,07,00,10,15.40
2006,08,07,00,11,15.40
2006,08,07,00,12,15.40
2006,08,07,00,13,15.30
2006,08,07,00,14,15.30
2006,08,07,00,15,15.30
2006,08,07,00,16,15.20
2006,08,07,00,17,15.20
2006,08,07,00,18,15.20
2006,08,07,00,19,15.20
2006,08,07,00,20,15.20
2006,08,07,00,21,15.20
2006,08,07,00,22,15.20
2006,08,07,00,23,15.20
2006,08,07,00,24,15.20
2006,08,07,00,25,15.20
2006,08,07,00,26,15.10
2006,08,07,00,27,15.10
2006,08,07,00,28,15.00
2006,08,07,00,29,15.00
2006,08,07,00,30,15.00
2006,08,07,00,31,15.00
2006,08,07,00,32,15.00
2006,08,07,00,33,15.00
2006,08,07,00,34,15.00
2006,08,07,00,35,15.00
2006,08,07,00,36,15.00
2006,08,07,00,37,15.00
2006,08,07,00,38,15.00
2006,08,07,00,39,15.00
2006,08,07,00,40,15.00
2006,08,07,00,41,15.00
2006,08,07,00,42,15.00
2006,08,07,00,43,14.90
2006,08,07,00,44,14.90
2006,08,07,00,45,14.80
2006,08,07,00,46,14.80
2006,08,07,00,47,14.80
2006,08,07,00,48,14.80
2006,08,07,00,49,14.70
2006,08,07,00,50,14.70
2006,08,07,00,51,14.70
2006,08,07,00,52,14.70
2006,08,07,00,53,14.60
2006,08,07,00,54,14.60
2006,08,07,00,55,14.60
2006,08,07,00,56,14.60
2006,08,07,00,57,14.60
2006,08,07,00,58,14.60
2006,08,07,00,59,14.60
2006,08,07,01,00,14.60
2006,08,07,01,01,14.50
2006,08,07,01,02,14.50
2006,08,07,01,03,14.40
2006,08,07,01,04,14.40
2006,08,07,01,05,14.40
2006,08,07,01,06,14.30
2006,08,07,01,07,14.30
2006,08,07,01,08,14.30
2006,08,07,01,09,14.30
2006,08,07,01,10,14.30
2006,08,07,01,11,14.30
2006,08,07,01,12,14.30
2006,08,07,01,13,14.30
2006,08,07,01,14,14.30
2006,08,07,01,15,14.30
2006,08,07,01,16,14.30
2006,08,07,01,17,14.30
2006,08,07,01,18,14.30
2006,08,07,01,19,14.30
2006,08,07,01,20,14.20
2006,08,07,01,21,14.20
2006,08,07,01,22,14.20
2006,08,07,01,23,14.20
2006,08,07,01,24,14.20
2006,08,07,01,25,14.20
2006,08,07,01,26,14.20
2006,08,07,01,27,14.20
2006,08,07,01,28,14.20
2006,08,07,01,29,14.20
2006,08,07,01,30,14.30
2006,08,07,01,31,14.30
2006,08,07,01,32,14.30
2006,08,07,01,33,14.30
2006,08,07,01,34,14.30
2006,08,07,01,35,14.30
2006,08,07,01,36,14.30
2006,08,07,01,37,14.30
2006,08,07,01,38,14.30
2006,08,07,01,39,14.30
2006,08,07,01,40,14.30
2006,08,07,01,41,14.30
2006,08,07,01,42,14.30
2006,08,07,01,43,14.20
2006,08,07,01,44,14.20
2006,08,07,01,45,14.20
2006,08,07,01,46,14.20
2006,08,07,01,47,14.20
2006,08,07,01,48,14.20
2006,08,07,01,49,14.20
2006,08,07,01,50,14.20
2006,08,07,01,51,14.20
2006,08,07,01,52,14.20
2006,08,07,01,53,14.10
2006,08,07,01,54,14.10
2006,08,07,01,55,14.10
2006,08,07,01,56,14.10
2006,08,07,01,57,14.10
2006,08,07,01,58,14.10
2006,08,07,01,59,14.10
2006,08,07,02,00,14.10
2006,08,07,02,01,14.00
2006,08,07,02,02,14.00
2006,08,07,02,03,14.00
2006,08,07,02,04,14.00
2006,08,07,02,05,14.00
2006,08,07,02,06,14.00
2006,08,07,02,07,14.00
2006,08,07,02,08,14.00
2006,08,07,02,09,14.00
2006,08,07,02,10,14.00
2006,08,07,02,11,14.00
2006,08,07,02,12,13.90
2006,08,07,02,13,13.90
2006,08,07,02,14,13.90
2006,08,07,02,15,13.90
2006,08,07,02,16,13.90
2006,08,07,02,17,13.80
2006,08,07,02,18,13.80
2006,08,07,02,19,13.80
2006,08,07,02,20,13.80
2006,08,07,02,21,13.80
2006,08,07,02,22,13.80
2006,08,07,02,23,13.80
2006,08,07,02,24,13.80
2006,08,07,02,25,13.80
2006,08,07,02,26,13.70
2006,08,07,02,27,13.70
2006,08,07,02,28,13.70
2006,08,07,02,29,13.70
2006,08,07,02,30,13.70
2006,08,07,02,31,13.60
2006,08,07,02,32,13.60
2006,08,07,02,33,13.60
2006,08,07,02,34,13.60
2006,08,07,02,35,13.60
2006,08,07,02,36,13.60
2006,08,07,02,37,13.60
2006,08,07,02,38,13.50
2006,08,07,02,39,13.50
2006,08,07,02,40,13.50
2006,08,07,02,41,13.50
2006,08,07,02,42,13.50
2006,08,07,02,43,13.50
2006,08,07,02,44,13.50
2006,08,07,02,45,13.40
2006,08,07,02,46,13.40
2006,08,07,02,47,13.40
2006,08,07,02,48,13.40
2006,08,07,02,49,13.30
2006,08,07,02,50,13.30
2006,08,07,02,51,13.30
2006,08,07,02,52,13.30
2006,08,07,02,53,13.20
2006,08,07,02,54,13.20
2006,08,07,02,55,13.20
2006,08,07,02,56,13.10
2006,08,07,02,57,13.10
2006,08,07,02,58,13.00
2006,08,07,02,59,13.00
2006,08,07,03,00,13.00
2006,08,07,03,01,13.00
2006,08,07,03,02,13.00
2006,08,07,03,03,12.90
2006,08,07,03,04,12.90
2006,08,07,03,05,12.90
2006,08,07,03,06,12.90
2006,08,07,03,07,12.90
2006,08,07,03,08,12.90
2006,08,07,03,09,12.90
2006,08,07,03,10,12.90
2006,08,07,03,11,12.90
2006,08,07,03,12,12.90
2006,08,07,03,13,12.90
2006,08,07,03,14,12.90
2006,08,07,03,15,12.90
2006,08,07,03,16,12.90
2006,08,07,03,17,12.90
2006,08,07,03,18,12.90
2006,08,07,03,19,12.80
2006,08,07,03,20,12.80
2006,08,07,03,21,12.80
2006,08,07,03,22,12.80
2006,08,07,03,23,12.80
2006,08,07,03,24,12.80
2006,08,07,03,25,12.70
2006,08,07,03,26,12.70
2006,08,07,03,27,12.70
2006,08,07,03,28,12.70
2006,08,07,03,29,12.70
2006,08,07,03,30,12.80
2006,08,07,03,31,12.70
2006,08,07,03,32,12.70
2006,08,07,03,33,12.70
2006,08,07,03,34,12.70
2006,08,07,03,35,12.70
2006,08,07,03,36,12.70
2006,08,07,03,37,12.70
2006,08,07,03,38,12.70
2006,08,07,03,39,12.70
2006,08,07,03,40,12.70
2006,08,07,03,41,12.70
2006,08,07,03,42,12.70
2006,08,07,03,43,12.80
2006,08,07,03,44,12.80
2006,08,07,03,45,12.80
2006,08,07,03,46,12.80
2006,08,07,03,47,12.80
2006,08,07,03,48,12.80
2006,08,07,03,49,12.80
2006,08,07,03,50,12.80
2006,08,07,03,51,12.80
2006,08,07,03,52,12.80
2006,08,07,03,53,12.80
2006,08,07,03,54,12.80
2006,08,07,03,55,12.70
2006,08,07,03,56,12.70
2006,08,07,03,57,12.70
2006,08,07,03,58,12.70
2006,08,07,03,59,12.70
2006,08,07,04,00,12.60
2006,08,07,04,01,12.60
2006,08,07,04,02,12.60
2006,08,07,04,03,12.60
2006,08,07,04,04,12.50
2006,08,07,04,05,12.50
2006,08,07,04,06,12.50
2006,08,07,04,07,12.50
2006,08,07,04,08,12.50
2006,08,07,04,09,12.40
2006,08,07,04,10,12.40
2006,08,07,04,11,12.40
2006,08,07,04,12,12.40
2006,08,07,04,13,12.40
2006,08,07,04,14,12.40
2006,08,07,04,15,12.40
2006,08,07,04,16,12.40
2006,08,07,04,17,12.40
2006,08,07,04,18,12.40
2006,08,07,04,19,12.40
2006,08,07,04,20,12.40
2006,08,07,04,21,12.40
2006,08,07,04,22,12.40
2006,08,07,04,23,12.40
2006,08,07,04,24,12.40
2006,08,07,04,25,12.40
2006,08,07,04,26,12.30
2006,08,07,04,27,12.30
2006,08,07,04,28,12.30
2006,08,07,04,29,12.30
2006,08,07,04,30,12.30
2006,08,07,04,31,12.30
2006,08,07,04,32,12.20
2006,08,07,04,33,12.20
2006,08,07,04,34,12.20
2006,08,07,04,35,12.20
2006,08,07,04,36,12.20
2006,08,07,04,37,12.20
2006,08,07,04,38,12.20
2006,08,07,04,39,12.20
2006,08,07,04,40,12.10
2006,08,07,04,41,12.10
2006,08,07,04,42,12.10
2006,08,07,04,43,12.10
2006,08,07,04,44,12.10
2006,08,07,04,45,12.10
2006,08,07,04,46,12.10
2006,08,07,04,47,12.10
2006,08,07,04,48,12.10
2006,08,07,04,49,12.10
2006,08,07,04,50,12.00
2006,08,07,04,51,12.00
2006,08,07,04,52,12.00
2006,08,07,04,53,12.00
2006,08,07,04,54,11.90
2006,08,07,04,55,11.90
2006,08,07,04,56,11.90
2006,08,07,04,57,11.90
2006,08,07,04,58,11.90
2006,08,07,04,59,11.90
2006,08,07,05,00,11.90
2006,08,07,05,01,11.90
2006,08,07,05,02,11.90
2006,08,07,05,03,11.90
2006,08,07,05,04,11.90
2006,08,07,05,05,11.90
2006,08,07,05,06,11.90
2006,08,07,05,07,11.90
2006,08,07,05,08,11.90
2006,08,07,05,09,11.90
2006,08,07,05,10,11.90
2006,08,07,05,11,11.90
2006,08,07,05,12,11.90
2006,08,07,05,13,12.00
2006,08,07,05,14,12.00
2006,08,07,05,15,12.00
2006,08,07,05,16,12.00
2006,08,07,05,17,12.00
2006,08,07,05,18,12.00
2006,08,07,05,19,12.00
2006,08,07,05,20,12.00
2006,08,07,05,21,11.90
2006,08,07,05,22,11.90
2006,08,07,05,23,11.90
2006,08,07,05,24,11.90
2006,08,07,05,25,11.90
2006,08,07,05,26,11.90
2006,08,07,05,27,11.90
2006,08,07,05,28,11.90
2006,08,07,05,29,11.90
2006,08,07,05,30,11.90
2006,08,07,05,31,11.80
2006,08,07,05,32,11.80
2006,08,07,05,33,11.80
2006,08,07,05,34,11.80
2006,08,07,05,35,11.80
2006,08,07,05,36,11.80
2006,08,07,05,37,11.80
2006,08,07,05,38,11.80
2006,08,07,05,39,11.80
2006,08,07,05,40,11.80
2006,08,07,05,41,11.80
2006,08,07,05,42,11.80
2006,08,07,05,43,11.80
2006,08,07,05,44,11.80
2006,08,07,05,45,11.80
2006,08,07,05,46,11.80
2006,08,07,05,47,11.80
2006,08,07,05,48,11.80
2006,08,07,05,49,11.80
2006,08,07,05,50,11.80
2006,08,07,05,51,11.80
2006,08,07,05,52,11.80
2006,08,07,05,53,11.90
2006,08,07,05,54,11.80
2006,08,07,05,55,11.80
2006,08,07,05,56,11.80
2006,08,07,05,57,11.80
2006,08,07,05,58,11.80
2006,08,07,05,59,11.80
2006,08,07,06,00,11.80
2006,08,07,06,01,11.80
2006,08,07,06,02,11.80
2006,08,07,06,03,11.80
2006,08,07,06,04,11.80
2006,08,07,06,05,11.80
2006,08,07,06,06,11.80
2006,08,07,06,07,11.80
2006,08,07,06,08,11.80
2006,08,07,06,09,11.80
2006,08,07,06,10,11.80
2006,08,07,06,11,11.80
2006,08,07,06,12,11.80
2006,08,07,06,13,11.80
2006,08,07,06,14,11.80
2006,08,07,06,15,11.70
2006,08,07,06,16,11.70
2006,08,07,06,17,11.70
2006,08,07,06,18,11.70
2006,08,07,06,19,11.70
2006,08,07,06,20,11.70
2006,08,07,06,21,11.70
2006,08,07,06,22,11.70
2006,08,07,06,23,11.70
2006,08,07,06,24,11.60
2006,08,07,06,25,11.60
2006,08,07,06,26,11.60
2006,08,07,06,27,11.60
2006,08,07,06,28,11.60
2006,08,07,06,29,11.60
2006,08,07,06,30,11.60
2006,08,07,06,31,11.60
2006,08,07,06,32,11.60
2006,08,07,06,33,11.60
2006,08,07,06,34,11.60
2006,08,07,06,35,11.60
2006,08,07,06,36,11.60
2006,08,07,06,37,11.50
2006,08,07,06,38,11.50
2006,08,07,06,39,11.50
2006,08,07,06,40,11.50
2006,08,07,06,41,11.50
2006,08,07,06,42,11.50
2006,08,07,06,43,11.50
2006,08,07,06,44,11.50
2006,08,07,06,45,11.50
2006,08,07,06,46,11.50
2006,08,07,06,47,11.60
2006,08,07,06,48,11.60
2006,08,07,06,49,11.60
2006,08,07,06,50,11.70
2006,08,07,06,51,11.70
2006,08,07,06,52,11.70
2006,08,07,06,53,11.70
2006,08,07,06,54,11.70
2006,08,07,06,55,11.80
2006,08,07,06,56,11.80
2006,08,07,06,57,11.80
2006,08,07,06,58,11.80
2006,08,07,06,59,11.80
2006,08,07,07,00,11.80
2006,08,07,07,01,11.90
2006,08,07,07,02,12.00
2006,08,07,07,03,12.10
2006,08,07,07,04,12.10
2006,08,07,07,05,12.20
2006,08,07,07,06,12.30
2006,08,07,07,07,12.40
2006,08,07,07,08,12.40
2006,08,07,07,09,12.60
2006,08,07,07,10,12.70
2006,08,07,07,11,12.80
2006,08,07,07,12,12.90
2006,08,07,07,13,13.00
2006,08,07,07,14,13.10
2006,08,07,07,15,13.20
2006,08,07,07,16,13.20
2006,08,07,07,17,13.30
2006,08,07,07,18,13.40
2006,08,07,07,19,13.40
2006,08,07,07,20,13.50
2006,08,07,07,21,13.60
2006,08,07,07,22,13.70
2006,08,07,07,23,13.80
2006,08,07,07,24,13.80
2006,08,07,07,25,13.90
2006,08,07,07,26,14.00
2006,08,07,07,27,14.00
2006,08,07,07,28,14.10
2006,08,07,07,29,14.20
2006,08,07,07,30,14.30
2006,08,07,07,31,14.30
2006,08,07,07,32,14.40
2006,08,07,07,33,14.40
2006,08,07,07,34,14.50
2006,08,07,07,35,14.50
2006,08,07,07,36,14.50
2006,08,07,07,37,14.50
2006,08,07,07,38,14.60
2006,08,07,07,39,14.60
2006,08,07,07,40,14.60
2006,08,07,07,41,14.70
2006,08,07,07,42,14.80
2006,08,07,07,43,14.80
2006,08,07,07,44,14.80
2006,08,07,07,45,14.90
2006,08,07,07,46,14.90
2006,08,07,07,47,14.90
2006,08,07,07,48,14.90
2006,08,07,07,49,14.90
2006,08,07,07,50,14.90
2006,08,07,07,51,15.00
2006,08,07,07,52,15.00
2006,08,07,07,53,15.00
2006,08,07,07,54,15.00
2006,08,07,07,55,15.00
2006,08,07,07,56,14.90
2006,08,07,07,57,14.90
2006,08,07,07,58,14.90
2006,08,07,07,59,14.90
2006,08,07,08,00,14.90
2006,08,07,08,01,14.80
2006,08,07,08,02,14.80
2006,08,07,08,03,14.80
2006,08,07,08,04,14.90
2006,08,07,08,05,14.90
2006,08,07,08,06,15.00
2006,08,07,08,07,15.00
2006,08,07,08,08,15.00
2006,08,07,08,09,15.00
2006,08,07,08,10,15.00
2006,08,07,08,11,15.00
2006,08,07,08,12,15.00
2006,08,07,08,13,15.00
2006,08,07,08,14,15.00
2006,08,07,08,15,15.10
2006,08,07,08,16,15.10
2006,08,07,08,17,15.10
2006,08,07,08,18,15.20
2006,08,07,08,19,15.20
2006,08,07,08,20,15.30
2006,08,07,08,21,15.30
2006,08,07,08,22,15.40
2006,08,07,08,23,15.40
2006,08,07,08,24,15.50
2006,08,07,08,25,15.60
2006,08,07,08,26,15.60
2006,08,07,08,27,15.60
2006,08,07,08,28,15.60
2006,08,07,08,29,15.70
2006,08,07,08,30,15.70
2006,08,07,08,31,15.70
2006,08,07,08,32,15.70
2006,08,07,08,33,15.80
2006,08,07,08,34,15.80
2006,08,07,08,35,15.90
2006,08,07,08,36,15.90
2006,08,07,08,37,16.00
2006,08,07,08,38,16.00
2006,08,07,08,39,16.00
2006,08,07,08,40,16.00
2006,08,07,08,41,16.10
2006,08,07,08,42,16.10
2006,08,07,08,43,16.10
2006,08,07,08,44,16.10
2006,08,07,08,45,16.10
2006,08,07,08,46,16.10
2006,08,07,08,47,16.10
2006,08,07,08,48,16.10
2006,08,07,08,49,16.10
2006,08,07,08,50,16.10
2006,08,07,08,51,16.10
2006,08,07,08,52,16.10
2006,08,07,08,53,16.10
2006,08,07,08,54,16.10
2006,08,07,08,55,16.10
2006,08,07,08,56,16.10
2006,08,07,08,57,16.10
2006,08,07,08,58,16.10
2006,08,07,08,59,16.10
2006,08,07,09,00,16.20
2006,08,07,09,01,16.20
2006,08,07,09,02,16.20
2006,08,07,09,03,16.20
2006,08,07,09,04,16.20
2006,08,07,09,05,16.30
2006,08,07,09,06,16.30
2006,08,07,09,07,16.40
2006,08,07,09,08,16.40
2006,08,07,09,09,16.40
2006,08,07,09,10,16.40
2006,08,07,09,11,16.50
2006,08,07,09,12,16.60
2006,08,07,09,13,16.60
2006,08,07,09,14,16.70
2006,08,07,09,15,16.70
2006,08,07,09,16,16.80
2006,08,07,09,17,16.80
2006,08,07,09,18,16.80
2006,08,07,09,19,16.80
2006,08,07,09,20,16.80
2006,08,07,09,21,16.80
2006,08,07,09,22,16.80
2006,08,07,09,23,16.90
2006,08,07,09,24,16.90
2006,08,07,09,25,16.90
2006,08,07,09,26,17.00
2006,08,07,09,27,17.10
2006,08,07,09,28,17.10
2006,08,07,09,29,17.20
2006,08,07,09,30,17.30
2006,08,07,09,31,17.30
2006,08,07,09,32,17.30
2006,08,07,09,33,17.40
2006,08,07,09,34,17.40
2006,08,07,09,35,17.40
2006,08,07,09,36,17.40
2006,08,07,09,37,17.40
2006,08,07,09,38,17.40
2006,08,07,09,39,17.50
2006,08,07,09,40,17.60
2006,08,07,09,41,17.80
2006,08,07,09,42,17.90
2006,08,07,09,43,18.00
2006,08,07,09,44,18.10
2006,08,07,09,45,18.20
2006,08,07,09,46,18.20
2006,08,07,09,47,18.20
2006,08,07,09,48,18.30
2006,08,07,09,49,18.30
2006,08,07,09,50,18.40
2006,08,07,09,51,18.50
2006,08,07,09,52,18.60
2006,08,07,09,53,18.70
2006,08,07,09,54,18.70
2006,08,07,09,55,18.70
2006,08,07,09,56,18.60
2006,08,07,09,57,18.60
2006,08,07,09,58,18.60
2006,08,07,09,59,18.60
2006,08,07,10,00,18.60
2006,08,07,10,01,18.70
2006,08,07,10,02,18.70
2006,08,07,10,03,18.80
2006,08,07,10,04,18.90
2006,08,07,10,05,18.90
2006,08,07,10,06,18.80
2006,08,07,10,07,18.80
2006,08,07,10,08,18.80
2006,08,07,10,09,18.80
2006,08,07,10,10,18.80
2006,08,07,10,11,18.80
2006,08,07,10,12,18.80
2006,08,07,10,13,18.70
2006,08,07,10,14,18.70
2006,08,07,10,15,18.70
2006,08,07,10,16,18.70
2006,08,07,10,17,18.70
2006,08,07,10,18,18.80
2006,08,07,10,19,18.90
2006,08,07,10,20,19.00
2006,08,07,10,21,19.10
2006,08,07,10,22,19.20
2006,08,07,10,23,19.40
2006,08,07,10,24,19.50
2006,08,07,10,25,19.70
2006,08,07,10,26,19.70
2006,08,07,10,27,19.80
2006,08,07,10,28,19.90
2006,08,07,10,29,19.90
2006,08,07,10,30,20.00
2006,08,07,10,31,20.00
2006,08,07,10,32,20.10
2006,08,07,10,33,20.20
2006,08,07,10,34,20.30
2006,08,07,10,35,20.40
2006,08,07,10,36,20.40
2006,08,07,10,37,20.40
2006,08,07,10,38,20.30
2006,08,07,10,39,20.10
2006,08,07,10,40,20.00
2006,08,07,10,41,19.90
2006,08,07,10,42,19.70
2006,08,07,10,43,19.70
2006,08,07,10,44,19.70
2006,08,07,10,45,19.70
2006,08,07,10,46,19.70
2006,08,07,10,47,19.70
2006,08,07,10,48,19.70
2006,08,07,10,49,19.80
2006,08,07,10,50,19.70
2006,08,07,10,51,19.60
2006,08,07,10,52,19.60
2006,08,07,10,53,19.40
2006,08,07,10,54,19.30
2006,08,07,10,55,19.20
2006,08,07,10,56,19.10
2006,08,07,10,57,19.00
2006,08,07,10,58,19.00
2006,08,07,10,59,19.00
2006,08,07,11,00,19.00
2006,08,07,11,01,19.10
2006,08,07,11,02,19.10
2006,08,07,11,03,19.10
2006,08,07,11,04,19.20
2006,08,07,11,05,19.20
2006,08,07,11,06,19.20
2006,08,07,11,07,19.10
2006,08,07,11,08,19.10
2006,08,07,11,09,19.00
2006,08,07,11,10,19.00
2006,08,07,11,11,19.10
2006,08,07,11,12,19.20
2006,08,07,11,13,19.20
2006,08,07,11,14,19.10
2006,08,07,11,15,19.10
2006,08,07,11,16,19.00
2006,08,07,11,17,18.90
2006,08,07,11,18,18.90
2006,08,07,11,19,18.90
2006,08,07,11,20,19.00
2006,08,07,11,21,19.10
2006,08,07,11,22,19.10
2006,08,07,11,23,19.20
2006,08,07,11,24,19.40
2006,08,07,11,25,19.40
2006,08,07,11,26,19.40
2006,08,07,11,27,19.30
2006,08,07,11,28,19.30
2006,08,07,11,29,19.30
2006,08,07,11,30,19.30
2006,08,07,11,31,19.40
2006,08,07,11,32,19.40
2006,08,07,11,33,19.40
2006,08,07,11,34,19.40
2006,08,07,11,35,19.50
2006,08,07,11,36,19.60
2006,08,07,11,37,19.70
2006,08,07,11,38,19.80
2006,08,07,11,39,19.90
2006,08,07,11,40,19.90
2006,08,07,11,41,19.90
2006,08,07,11,42,20.00
2006,08,07,11,43,20.00
2006,08,07,11,44,20.10
2006,08,07,11,45,20.10
2006,08,07,11,46,20.20
2006,08,07,11,47,20.30
2006,08,07,11,48,20.30
2006,08,07,11,49,20.40
2006,08,07,11,50,20.50
2006,08,07,11,51,20.60
2006,08,07,11,52,20.70
2006,08,07,11,53,20.80
2006,08,07,11,54,20.90
2006,08,07,11,55,20.80
2006,08,07,11,56,20.80
2006,08,07,11,57,20.80
2006,08,07,11,58,20.80
2006,08,07,11,59,20.80
2006,08,07,12,00,20.80
2006,08,07,12,01,20.80
2006,08,07,12,02,20.90
2006,08,07,12,03,20.90
2006,08,07,12,04,21.00
2006,08,07,12,05,21.00
2006,08,07,12,06,21.10
2006,08,07,12,07,21.20
2006,08,07,12,08,21.40
2006,08,07,12,09,21.40
2006,08,07,12,10,21.40
2006,08,07,12,11,21.50
2006,08,07,12,12,21.60
2006,08,07,12,13,21.70
2006,08,07,12,14,21.70
2006,08,07,12,15,21.70
2006,08,07,12,16,21.70
2006,08,07,12,17,21.70
2006,08,07,12,18,21.70
2006,08,07,12,19,21.70
2006,08,07,12,20,21.70
2006,08,07,12,21,21.70
2006,08,07,12,22,21.70
2006,08,07,12,23,21.80
2006,08,07,12,24,21.70
2006,08,07,12,25,21.70
2006,08,07,12,26,21.60
2006,08,07,12,27,21.60
2006,08,07,12,28,21.60
2006,08,07,12,29,21.60
2006,08,07,12,30,21.60
2006,08,07,12,31,21.60
2006,08,07,12,32,21.70
2006,08,07,12,33,21.60
2006,08,07,12,34,21.70
2006,08,07,12,35,21.70
2006,08,07,12,36,21.70
2006,08,07,12,37,21.80
2006,08,07,12,38,21.80
2006,08,07,12,39,21.80
2006,08,07,12,40,21.70
2006,08,07,12,41,21.70
2006,08,07,12,42,21.70
2006,08,07,12,43,21.60
2006,08,07,12,44,21.50
2006,08,07,12,45,21.50
2006,08,07,12,46,21.60
2006,08,07,12,47,21.70
2006,08,07,12,48,21.70
2006,08,07,12,49,21.70
2006,08,07,12,50,21.70
2006,08,07,12,51,21.70
2006,08,07,12,52,21.70
2006,08,07,12,53,21.70
2006,08,07,12,54,21.60
2006,08,07,12,55,21.60
2006,08,07,12,56,21.60
2006,08,07,12,57,21.70
2006,08,07,12,58,21.80
2006,08,07,12,59,21.80
2006,08,07,13,00,21.70
2006,08,07,13,01,21.80
2006,08,07,13,02,21.80
2006,08,07,13,03,21.90
2006,08,07,13,04,22.10
2006,08,07,13,05,22.20
2006,08,07,13,06,22.30
2006,08,07,13,07,22.40
2006,08,07,13,08,22.50
2006,08,07,13,09,22.50
2006,08,07,13,10,22.40
2006,08,07,13,11,22.40
2006,08,07,13,12,22.40
2006,08,07,13,13,22.30
2006,08,07,13,14,22.30
2006,08,07,13,15,22.40
2006,08,07,13,16,22.50
2006,08,07,13,17,22.60
2006,08,07,13,18,22.60
2006,08,07,13,19,22.60
2006,08,07,13,20,22.60
2006,08,07,13,21,22.60
2006,08,07,13,22,22.60
2006,08,07,13,23,22.70
2006,08,07,13,24,22.80
2006,08,07,13,25,22.80
2006,08,07,13,26,22.70
2006,08,07,13,27,22.50
2006,08,07,13,28,22.40
2006,08,07,13,29,22.40
2006,08,07,13,30,22.50
2006,08,07,13,31,22.50
2006,08,07,13,32,22.60
2006,08,07,13,33,22.60
2006,08,07,13,34,22.70
2006,08,07,13,35,22.60
2006,08,07,13,36,22.60
2006,08,07,13,37,22.50
2006,08,07,13,38,22.40
2006,08,07,13,39,22.40
2006,08,07,13,40,22.30
2006,08,07,13,41,22.30
2006,08,07,13,42,22.40
2006,08,07,13,43,22.40
2006,08,07,13,44,22.50
2006,08,07,13,45,22.50
2006,08,07,13,46,22.60
2006,08,07,13,47,22.80
2006,08,07,13,48,23.00
2006,08,07,13,49,23.10
2006,08,07,13,50,23.00
2006,08,07,13,51,22.90
2006,08,07,13,52,22.90
2006,08,07,13,53,22.90
2006,08,07,13,54,23.00
2006,08,07,13,55,23.10
2006,08,07,13,56,23.10
2006,08,07,13,57,23.20
2006,08,07,13,58,23.20
2006,08,07,13,59,23.30
2006,08,07,14,00,23.40
2006,08,07,14,01,23.40
2006,08,07,14,02,23.40
2006,08,07,14,03,23.50
2006,08,07,14,04,23.60
2006,08,07,14,05,23.70
2006,08,07,14,06,23.80
2006,08,07,14,07,23.90
2006,08,07,14,08,23.90
2006,08,07,14,09,23.90
2006,08,07,14,10,23.90
2006,08,07,14,11,23.80
2006,08,07,14,12,23.70
2006,08,07,14,13,23.60
2006,08,07,14,14,23.60
2006,08,07,14,15,23.70
2006,08,07,14,16,23.70
2006,08,07,14,17,23.70
2006,08,07,14,18,23.60
2006,08,07,14,19,23.50
2006,08,07,14,20,23.40
2006,08,07,14,21,23.40
2006,08,07,14,22,23.40
2006,08,07,14,23,23.40
2006,08,07,14,24,23.40
2006,08,07,14,25,23.40
2006,08,07,14,26,23.40
2006,08,07,14,27,23.40
2006,08,07,14,28,23.50
2006,08,07,14,29,23.60
2006,08,07,14,30,23.70
2006,08,07,14,31,23.80
2006,08,07,14,32,23.90
2006,08,07,14,33,23.90
2006,08,07,14,34,23.90
2006,08,07,14,35,23.90
2006,08,07,14,36,23.90
2006,08,07,14,37,24.00
2006,08,07,14,38,24.10
2006,08,07,14,39,24.00
2006,08,07,14,40,23.90
2006,08,07,14,41,23.80
2006,08,07,14,42,23.80
2006,08,07,14,43,23.70
2006,08,07,14,44,23.70
2006,08,07,14,45,23.70
2006,08,07,14,46,23.60
2006,08,07,14,47,23.60
2006,08,07,14,48,23.70
2006,08,07,14,49,23.90
2006,08,07,14,50,23.90
2006,08,07,14,51,23.90
2006,08,07,14,52,24.00
2006,08,07,14,53,24.10
2006,08,07,14,54,24.20
2006,08,07,14,55,24.10
2006,08,07,14,56,23.90
2006,08,07,14,57,23.80
2006,08,07,14,58,23.70
2006,08,07,14,59,23.70
2006,08,07,15,00,23.60
2006,08,07,15,01,23.60
2006,08,07,15,02,23.50
2006,08,07,15,03,23.50
2006,08,07,15,04,23.50
2006,08,07,15,05,23.60
2006,08,07,15,06,23.60
2006,08,07,15,07,23.60
2006,08,07,15,08,23.60
2006,08,07,15,09,23.70
2006,08,07,15,10,23.90
2006,08,07,15,11,24.00
2006,08,07,15,12,24.00
2006,08,07,15,13,24.10
2006,08,07,15,14,24.20
2006,08,07,15,15,24.20
2006,08,07,15,16,24.10
2006,08,07,15,17,24.00
2006,08,07,15,18,24.00
2006,08,07,15,19,24.10
2006,08,07,15,20,24.20
2006,08,07,15,21,24.20
2006,08,07,15,22,24.20
2006,08,07,15,23,24.30
2006,08,07,15,24,24.40
2006,08,07,15,25,24.50
2006,08,07,15,26,24.50
2006,08,07,15,27,24.60
2006,08,07,15,28,24.60
2006,08,07,15,29,24.60
2006,08,07,15,30,24.70
2006,08,07,15,31,24.70
2006,08,07,15,32,24.80
2006,08,07,15,33,24.80
2006,08,07,15,34,24.80
2006,08,07,15,35,25.00
2006,08,07,15,36,25.10
2006,08,07,15,37,25.20
2006,08,07,15,38,25.20
2006,08,07,15,39,25.20
2006,08,07,15,40,25.30
2006,08,07,15,41,25.30
2006,08,07,15,42,25.30
2006,08,07,15,43,25.20
2006,08,07,15,44,25.10
2006,08,07,15,45,25.00
2006,08,07,15,46,25.10
2006,08,07,15,47,25.10
2006,08,07,15,48,25.30
2006,08,07,15,49,25.30
2006,08,07,15,50,25.30
2006,08,07,15,51,25.30
2006,08,07,15,52,25.20
2006,08,07,15,53,25.20
2006,08,07,15,54,25.20
2006,08,07,15,55,25.20
2006,08,07,15,56,25.20
2006,08,07,15,57,25.10
2006,08,07,15,58,25.00
2006,08,07,15,59,25.00
2006,08,07,16,00,25.10
2006,08,07,16,01,25.20
2006,08,07,16,02,25.20
2006,08,07,16,03,25.30
2006,08,07,16,04,25.30
2006,08,07,16,05,25.40
2006,08,07,16,06,25.40
2006,08,07,16,07,25.30
2006,08,07,16,08,25.20
2006,08,07,16,09,25.20
2006,08,07,16,10,25.10
2006,08,07,16,11,25.00
2006,08,07,16,12,24.90
2006,08,07,16,13,24.90
2006,08,07,16,14,25.00
2006,08,07,16,15,25.10
2006,08,07,16,16,25.20
2006,08,07,16,17,25.10
2006,08,07,16,18,25.00
2006,08,07,16,19,25.00
2006,08,07,16,20,25.00
2006,08,07,16,21,25.00
2006,08,07,16,22,25.00
2006,08,07,16,23,25.00
2006,08,07,16,24,25.00
2006,08,07,16,25,25.00
2006,08,07,16,26,25.00
2006,08,07,16,27,24.90
2006,08,07,16,28,24.90
2006,08,07,16,29,25.00
2006,08,07,16,30,25.00
2006,08,07,16,31,25.10
2006,08,07,16,32,25.20
2006,08,07,16,33,25.20
2006,08,07,16,34,25.10
2006,08,07,16,35,25.20
2006,08,07,16,36,25.20
2006,08,07,16,37,25.20
2006,08,07,16,38,25.30
2006,08,07,16,39,25.30
2006,08,07,16,40,25.30
2006,08,07,16,41,25.20
2006,08,07,16,42,25.10
2006,08,07,16,43,25.00
2006,08,07,16,44,24.90
2006,08,07,16,45,24.80
2006,08,07,16,46,24.70
2006,08,07,16,47,24.70
2006,08,07,16,48,24.90
2006,08,07,16,49,24.90
2006,08,07,16,50,24.90
2006,08,07,16,51,25.00
2006,08,07,16,52,25.20
2006,08,07,16,53,25.30
2006,08,07,16,54,25.40
2006,08,07,16,55,25.40
2006,08,07,16,56,25.40
2006,08,07,16,57,25.50
2006,08,07,16,58,25.60
2006,08,07,16,59,25.70
2006,08,07,17,00,25.70
2006,08,07,17,01,25.70
2006,08,07,17,02,25.70
2006,08,07,17,03,25.60
2006,08,07,17,04,25.50
2006,08,07,17,05,25.50
2006,08,07,17,06,25.60
2006,08,07,17,07,25.90
2006,08,07,17,08,25.90
2006,08,07,17,09,26.00
2006,08,07,17,10,26.10
2006,08,07,17,11,25.90
2006,08,07,17,12,25.80
2006,08,07,17,13,25.80
2006,08,07,17,14,25.70
2006,08,07,17,15,25.60
2006,08,07,17,16,25.40
2006,08,07,17,17,25.30
2006,08,07,17,18,25.20
2006,08,07,17,19,25.30